Time,TemperatureF,DewpointF,PressureIn,WindDirection,WindDirectionDegrees,WindSpeedMPH,WindSpeedGustMPH,Humidity,HourlyPrecipIn,Conditions,Clouds,dailyrainin,SoftwareType,DateUTC
2013-04-24 00:01:00,72.0,68.5,30.01,SSW,207,0.0,9.0,89,0.00,,,0.00,meteohub,2013-04-24 04:01:00,
2013-04-24 00:02:00,72.0,68.5,30.02,South,191,0.0,9.0,89,0.00,,,0.00,meteohub,2013-04-24 04:02:00,
2013-04-24 00:03:00,72.0,68.5,30.01,SSE,150,0.0,9.0,89,0.00,,,0.00,meteohub,2013-04-24 04:03:00,
2013-04-24 00:05:00,72.1,68.7,30.02,SW,231,4.0,9.0,89,0.00,,,0.00,meteohub,2013-04-24 04:05:00,
2013-04-24 00:10:00,72.1,68.7,30.02,SSW,194,0.0,7.0,89,0.00,,,0.00,meteohub,2013-04-24 04:10:00,
2013-04-24 00:15:00,72.0,68.5,30.02,SSE,159,0.0,7.0,89,0.00,,,0.00,meteohub,2013-04-24 04:15:00,
2013-04-24 00:20:00,72.1,68.7,30.02,SSE,159,0.0,7.0,89,0.00,,,0.00,meteohub,2013-04-24 04:20:00,
2013-04-24 00:25:00,72.0,68.5,30.02,South,186,0.0,5.0,89,0.00,,,0.00,meteohub,2013-04-24 04:25:00,
2013-04-24 00:30:00,72.0,68.5,30.02,South,176,0.0,1.0,89,0.00,,,0.00,meteohub,2013-04-24 04:30:00,
2013-04-24 00:35:00,72.0,68.5,30.02,South,176,0.0,1.0,89,0.00,,,0.00,meteohub,2013-04-24 04:35:00,
2013-04-24 00:40:00,72.0,68.9,30.01,South,185,0.0,5.0,90,0.00,,,0.00,meteohub,2013-04-24 04:40:00,
2013-04-24 00:46:00,71.8,68.7,30.01,SSE,167,2.0,6.0,90,0.00,,,0.00,meteohub,2013-04-24 04:46:00,
2013-04-24 00:51:00,71.8,68.7,30.01,South,177,0.0,6.0,90,0.00,,,0.00,meteohub,2013-04-24 04:51:00,
2013-04-24 00:56:00,71.8,68.7,30.01,South,169,1.0,6.0,90,0.00,,,0.00,meteohub,2013-04-24 04:56:00,
2013-04-24 01:01:00,71.8,68.7,30.02,SSE,163,4.0,7.0,90,0.00,,,0.00,meteohub,2013-04-24 05:01:00,
2013-04-24 01:06:00,71.8,68.7,30.02,SSE,163,0.0,9.0,90,0.00,,,0.00,meteohub,2013-04-24 05:06:00,
2013-04-24 01:11:00,71.8,68.7,30.02,SSE,155,0.0,9.0,90,0.00,,,0.00,meteohub,2013-04-24 05:11:00,
2013-04-24 01:16:00,71.8,68.4,30.02,South,171,6.0,9.0,89,0.00,,,0.00,meteohub,2013-04-24 05:16:00,
2013-04-24 01:21:00,71.8,68.4,30.02,South,176,0.0,9.0,89,0.00,,,0.00,meteohub,2013-04-24 05:21:00,
2013-04-24 01:26:00,71.8,68.4,30.01,SSW,194,1.0,9.0,89,0.00,,,0.00,meteohub,2013-04-24 05:26:00,
2013-04-24 01:31:00,71.8,68.4,30.01,SSW,194,3.0,9.0,89,0.00,,,0.00,meteohub,2013-04-24 05:31:00,
2013-04-24 01:36:00,71.6,68.2,30.02,South,176,4.0,9.0,89,0.00,,,0.00,meteohub,2013-04-24 05:36:00,
2013-04-24 01:41:00,71.6,68.2,30.02,SSW,194,5.0,9.0,89,0.00,,,0.00,meteohub,2013-04-24 05:41:00,
2013-04-24 01:46:00,71.4,68.0,30.02,South,180,0.0,9.0,89,0.00,,,0.00,meteohub,2013-04-24 05:46:00,
2013-04-24 01:51:00,71.4,68.0,30.02,SSW,201,0.0,9.0,89,0.00,,,0.00,meteohub,2013-04-24 05:51:00,
2013-04-24 01:56:00,71.4,68.0,30.02,South,179,0.0,7.0,89,0.00,,,0.00,meteohub,2013-04-24 05:56:00,
2013-04-24 02:01:00,71.4,68.0,30.02,South,186,0.0,6.0,89,0.00,,,0.00,meteohub,2013-04-24 06:01:00,
2013-04-24 02:06:00,71.4,68.0,30.02,SSE,166,0.0,6.0,89,0.00,,,0.00,meteohub,2013-04-24 06:06:00,
2013-04-24 02:11:00,71.2,67.8,30.02,South,173,0.0,7.0,89,0.00,,,0.00,meteohub,2013-04-24 06:11:00,
2013-04-24 02:16:00,71.2,67.8,30.02,South,173,0.0,7.0,89,0.00,,,0.00,meteohub,2013-04-24 06:16:00,
2013-04-24 02:21:00,71.2,68.2,30.02,SSW,199,0.0,5.0,90,0.00,,,0.00,meteohub,2013-04-24 06:21:00,
2013-04-24 02:26:00,71.1,68.0,30.01,South,177,0.0,5.0,90,0.00,,,0.00,meteohub,2013-04-24 06:26:00,
2013-04-24 02:31:00,71.1,68.0,30.02,South,178,0.0,6.0,90,0.00,,,0.00,meteohub,2013-04-24 06:31:00,
2013-04-24 02:37:00,70.9,67.8,30.02,South,179,0.0,6.0,90,0.00,,,0.00,meteohub,2013-04-24 06:37:00,
2013-04-24 02:42:00,70.9,67.8,30.01,South,169,0.0,6.0,90,0.00,,,0.00,meteohub,2013-04-24 06:42:00,
2013-04-24 02:47:00,70.7,67.6,30.01,South,169,0.0,4.0,90,0.00,,,0.00,meteohub,2013-04-24 06:47:00,
2013-04-24 02:52:00,70.5,67.8,30.01,South,169,0.0,1.0,91,0.00,,,0.00,meteohub,2013-04-24 06:52:00,
2013-04-24 02:57:00,70.5,67.8,30.01,South,169,0.0,1.0,91,0.00,,,0.00,meteohub,2013-04-24 06:57:00,
2013-04-24 03:02:00,70.3,67.6,30.01,South,169,2.0,2.0,91,0.00,,,0.00,meteohub,2013-04-24 07:02:00,
2013-04-24 03:07:00,70.2,67.5,30.01,South,169,0.0,2.0,91,0.00,,,0.00,meteohub,2013-04-24 07:07:00,
2013-04-24 03:12:00,70.2,67.5,30.01,South,169,0.0,2.0,91,0.00,,,0.00,meteohub,2013-04-24 07:12:00,
2013-04-24 03:17:00,70.0,67.3,30.01,South,169,5.0,5.0,91,0.00,,,0.00,meteohub,2013-04-24 07:17:00,
2013-04-24 03:22:00,70.0,67.5,30.01,South,169,0.0,6.0,92,0.00,,,0.00,meteohub,2013-04-24 07:22:00,
2013-04-24 03:27:00,70.0,67.5,30.00,South,169,0.0,6.0,92,0.00,,,0.00,meteohub,2013-04-24 07:27:00,
2013-04-24 03:32:00,70.0,67.5,30.01,SSE,155,0.0,6.0,92,0.00,,,0.00,meteohub,2013-04-24 07:32:00,
2013-04-24 03:37:00,69.8,67.3,30.01,SSE,157,0.0,6.0,92,0.00,,,0.00,meteohub,2013-04-24 07:37:00,
2013-04-24 03:42:00,69.8,67.3,30.01,SSE,157,0.0,6.0,92,0.00,,,0.00,meteohub,2013-04-24 07:42:00,
2013-04-24 03:47:00,69.8,67.3,30.01,SSE,157,0.0,4.0,92,0.00,,,0.00,meteohub,2013-04-24 07:47:00,
2013-04-24 03:52:00,69.8,67.3,30.01,SSE,157,0.0,4.0,92,0.00,,,0.00,meteohub,2013-04-24 07:52:00,
2013-04-24 03:57:00,69.8,67.3,30.01,South,169,0.0,4.0,92,0.00,,,0.00,meteohub,2013-04-24 07:57:00,
2013-04-24 04:02:00,69.8,67.3,30.01,South,191,0.0,4.0,92,0.00,,,0.00,meteohub,2013-04-24 08:02:00,
2013-04-24 04:07:00,69.8,67.3,30.01,South,191,0.0,4.0,92,0.00,,,0.00,meteohub,2013-04-24 08:07:00,
2013-04-24 04:12:00,69.8,67.3,30.01,South,191,0.0,3.0,92,0.00,,,0.00,meteohub,2013-04-24 08:12:00,
2013-04-24 04:17:00,69.8,67.3,30.02,South,191,0.0,1.0,92,0.00,,,0.00,meteohub,2013-04-24 08:17:00,
2013-04-24 04:22:00,69.8,67.3,30.01,South,191,0.0,1.0,92,0.00,,,0.00,meteohub,2013-04-24 08:22:00,
2013-04-24 04:27:00,69.8,67.3,30.01,South,191,0.0,1.0,92,0.00,,,0.00,meteohub,2013-04-24 08:27:00,
2013-04-24 04:32:00,69.8,67.3,30.01,South,188,0.0,1.0,92,0.00,,,0.00,meteohub,2013-04-24 08:32:00,
2013-04-24 04:37:00,69.8,67.3,30.01,South,183,0.0,1.0,92,0.00,,,0.00,meteohub,2013-04-24 08:37:00,
2013-04-24 04:42:00,69.6,67.3,30.02,SSE,161,0.0,1.0,92,0.00,,,0.00,meteohub,2013-04-24 08:42:00,
2013-04-24 04:47:00,69.6,67.3,30.02,South,176,0.0,5.0,92,0.00,,,0.00,meteohub,2013-04-24 08:47:00,
2013-04-24 04:52:00,69.6,67.3,30.02,South,176,0.0,5.0,92,0.00,,,0.00,meteohub,2013-04-24 08:52:00,
2013-04-24 04:57:00,69.6,67.3,30.02,SSW,194,0.0,5.0,92,0.00,,,0.00,meteohub,2013-04-24 08:57:00,
2013-04-24 05:02:00,69.6,67.5,30.02,SSW,194,0.0,0.0,93,0.00,,,0.00,meteohub,2013-04-24 09:02:00,
2013-04-24 05:07:00,69.6,67.5,30.03,SSW,194,0.0,1.0,93,0.00,,,0.00,meteohub,2013-04-24 09:07:00,
2013-04-24 05:12:00,69.6,67.5,30.02,SSW,196,0.0,1.0,93,0.00,,,0.00,meteohub,2013-04-24 09:12:00,
2013-04-24 05:17:00,69.6,67.5,30.02,South,182,0.0,3.0,93,0.00,,,0.00,meteohub,2013-04-24 09:17:00,
2013-04-24 05:22:00,69.6,67.5,30.02,South,182,0.0,3.0,93,0.00,,,0.00,meteohub,2013-04-24 09:22:00,
2013-04-24 05:27:00,69.6,67.5,30.03,South,182,0.0,3.0,93,0.00,,,0.00,meteohub,2013-04-24 09:27:00,
2013-04-24 05:32:00,69.4,67.3,30.02,South,182,0.0,3.0,93,0.00,,,0.00,meteohub,2013-04-24 09:32:00,
2013-04-24 05:37:00,69.4,67.3,30.02,South,182,0.0,3.0,93,0.00,,,0.00,meteohub,2013-04-24 09:37:00,
2013-04-24 05:42:00,69.4,67.3,30.02,South,182,0.0,3.0,93,0.00,,,0.00,meteohub,2013-04-24 09:42:00,
2013-04-24 05:47:00,69.4,67.3,30.02,South,182,1.0,3.0,93,0.00,,,0.00,meteohub,2013-04-24 09:47:00,
2013-04-24 05:52:00,69.4,67.3,30.02,South,182,0.0,3.0,93,0.00,,,0.00,meteohub,2013-04-24 09:52:00,
2013-04-24 05:57:00,69.4,67.3,30.01,South,182,3.0,3.0,93,0.00,,,0.00,meteohub,2013-04-24 09:57:00,
2013-04-24 06:02:00,69.3,67.1,30.01,South,182,2.0,4.0,93,0.00,,,0.00,meteohub,2013-04-24 10:02:00,
2013-04-24 06:07:00,69.3,67.1,30.01,South,182,0.0,4.0,93,0.00,,,0.00,meteohub,2013-04-24 10:07:00,
2013-04-24 06:12:00,69.3,67.1,30.01,South,182,2.0,4.0,93,0.00,,,0.00,meteohub,2013-04-24 10:12:00,
2013-04-24 06:17:00,69.1,66.9,30.00,South,182,0.0,4.0,93,0.00,,,0.00,meteohub,2013-04-24 10:17:00,
2013-04-24 06:22:00,69.1,66.9,30.00,South,182,0.0,4.0,93,0.00,,,0.00,meteohub,2013-04-24 10:22:00,
2013-04-24 06:27:00,69.1,67.3,30.00,South,182,0.0,4.0,94,0.00,,,0.00,meteohub,2013-04-24 10:27:00,
2013-04-24 06:32:00,68.9,67.1,30.00,South,182,0.0,1.0,94,0.00,,,0.00,meteohub,2013-04-24 10:32:00,
2013-04-24 06:37:00,68.9,67.1,30.00,South,182,0.0,1.0,94,0.00,,,0.00,meteohub,2013-04-24 10:37:00,
2013-04-24 06:42:00,68.7,66.9,30.00,South,182,0.0,1.0,94,0.00,,,0.00,meteohub,2013-04-24 10:42:00,
2013-04-24 06:47:00,68.7,66.9,30.00,South,182,1.0,1.0,94,0.00,,,0.00,meteohub,2013-04-24 10:47:00,
2013-04-24 06:52:00,68.7,66.9,29.99,SSE,155,0.0,6.0,94,0.00,,,0.00,meteohub,2013-04-24 10:52:00,
2013-04-24 06:57:00,68.7,66.9,30.00,SSE,157,0.0,7.0,94,0.00,,,0.00,meteohub,2013-04-24 10:57:00,
2013-04-24 07:02:00,68.7,66.9,30.00,SSE,160,4.0,7.0,94,0.00,,,0.00,meteohub,2013-04-24 11:02:00,
2013-04-24 07:07:00,68.7,66.9,30.00,SSE,163,0.0,6.0,94,0.00,,,0.00,meteohub,2013-04-24 11:07:00,
2013-04-24 07:12:00,68.7,66.9,30.00,SSE,161,2.0,5.0,94,0.00,,,0.00,meteohub,2013-04-24 11:12:00,
2013-04-24 07:17:00,68.7,66.9,30.00,SSE,161,4.0,8.0,94,0.00,,,0.00,meteohub,2013-04-24 11:17:00,
2013-04-24 07:22:00,68.9,67.5,29.99,SSE,161,0.0,8.0,95,0.00,,,0.00,meteohub,2013-04-24 11:22:00,
2013-04-24 07:27:00,68.9,67.5,29.99,SSE,161,0.0,8.0,95,0.00,,,0.00,meteohub,2013-04-24 11:27:00,
2013-04-24 07:32:00,69.1,67.6,30.00,South,169,4.0,8.0,95,0.00,,,0.00,meteohub,2013-04-24 11:32:00,
2013-04-24 07:37:00,69.1,67.6,30.00,South,172,0.0,8.0,95,0.00,,,0.00,meteohub,2013-04-24 11:37:00,
2013-04-24 07:42:00,69.1,67.6,30.00,SSW,196,0.0,6.0,95,0.00,,,0.00,meteohub,2013-04-24 11:42:00,
2013-04-24 07:47:00,69.3,67.5,30.01,SW,215,4.0,6.0,94,0.00,,,0.00,meteohub,2013-04-24 11:47:00,
2013-04-24 07:52:00,69.3,67.5,30.00,South,180,0.0,7.0,94,0.00,,,0.00,meteohub,2013-04-24 11:52:00,
2013-04-24 07:57:00,69.3,67.5,30.00,SSE,160,2.0,7.0,94,0.00,,,0.00,meteohub,2013-04-24 11:57:00,
2013-04-24 08:02:00,69.3,67.5,30.00,SSE,162,5.0,7.0,94,0.00,,,0.00,meteohub,2013-04-24 12:02:00,
2013-04-24 08:07:00,69.3,67.5,29.99,SSE,157,4.0,9.0,94,0.00,,,0.00,meteohub,2013-04-24 12:07:00,
2013-04-24 08:12:00,69.3,67.5,29.99,South,178,5.0,10.0,94,0.00,,,0.00,meteohub,2013-04-24 12:12:00,
2013-04-24 08:17:00,69.4,67.6,29.98,SSE,164,4.0,10.0,94,0.00,,,0.00,meteohub,2013-04-24 12:17:00,
2013-04-24 08:22:00,69.4,68.0,29.99,SSE,158,0.0,10.0,95,0.00,,,0.00,meteohub,2013-04-24 12:22:00,
2013-04-24 08:27:00,69.4,68.0,30.00,SSE,148,0.0,10.0,95,0.00,,,0.00,meteohub,2013-04-24 12:27:00,
2013-04-24 08:32:00,69.6,68.2,30.00,SSE,159,0.0,10.0,95,0.00,,,0.00,meteohub,2013-04-24 12:32:00,
2013-04-24 08:37:00,69.6,67.8,30.00,SSE,168,2.0,8.0,94,0.00,,,0.00,meteohub,2013-04-24 12:37:00,
2013-04-24 08:42:00,69.6,67.8,30.01,SSE,150,7.0,9.0,94,0.00,,,0.00,meteohub,2013-04-24 12:42:00,
2013-04-24 08:47:00,69.8,68.0,30.01,South,181,4.0,9.0,94,0.00,,,0.00,meteohub,2013-04-24 12:47:00,
2013-04-24 08:52:00,69.8,68.0,29.99,South,169,5.0,9.0,94,0.01,,,0.01,meteohub,2013-04-24 12:52:00,
2013-04-24 08:57:00,69.8,68.0,29.99,South,180,3.0,9.0,94,0.01,,,0.01,meteohub,2013-04-24 12:57:00,
2013-04-24 09:02:00,70.0,68.2,30.00,South,177,4.0,10.0,94,0.01,,,0.01,meteohub,2013-04-24 13:02:00,
2013-04-24 09:07:00,70.0,68.2,30.00,South,186,0.0,10.0,94,0.01,,,0.01,meteohub,2013-04-24 13:07:00,
2013-04-24 09:12:00,70.0,68.2,30.00,South,182,0.0,10.0,94,0.01,,,0.01,meteohub,2013-04-24 13:12:00,
2013-04-24 09:17:00,70.2,68.4,30.01,SSE,159,0.0,7.0,94,0.01,,,0.01,meteohub,2013-04-24 13:17:00,
2013-04-24 09:22:00,70.2,68.4,30.04,SSE,161,2.0,7.0,94,0.01,,,0.01,meteohub,2013-04-24 13:22:00,
2013-04-24 09:27:00,70.2,68.7,30.05,North,0,0.0,7.0,95,0.01,,,0.01,meteohub,2013-04-24 13:27:00,
2013-04-24 09:32:00,70.3,68.9,30.04,SSW,196,0.0,5.0,95,0.01,,,0.01,meteohub,2013-04-24 13:32:00,
2013-04-24 09:37:00,70.3,68.5,30.02,South,173,4.0,4.0,94,0.01,,,0.01,meteohub,2013-04-24 13:37:00,
2013-04-24 09:42:00,70.2,68.4,30.01,South,175,7.0,7.0,94,0.01,,,0.01,meteohub,2013-04-24 13:42:00,
2013-04-24 09:47:00,70.0,68.5,30.01,South,178,4.0,12.0,95,0.01,,,0.01,meteohub,2013-04-24 13:47:00,
2013-04-24 09:52:00,70.0,68.5,30.01,SSE,147,4.0,12.0,95,0.00,,,0.01,meteohub,2013-04-24 13:52:00,
2013-04-24 09:57:00,70.0,68.5,30.00,SSE,165,7.0,12.0,95,0.00,,,0.01,meteohub,2013-04-24 13:57:00,
2013-04-24 10:02:00,70.0,68.5,30.00,SSW,201,5.0,9.0,95,0.00,,,0.01,meteohub,2013-04-24 14:02:00,
2013-04-24 10:07:00,69.3,67.5,30.00,South,174,2.0,9.0,94,0.00,,,0.01,meteohub,2013-04-24 14:07:00,
2013-04-24 10:12:00,69.4,68.0,30.00,South,170,5.0,9.0,95,0.00,,,0.01,meteohub,2013-04-24 14:12:00,
2013-04-24 10:17:00,69.8,68.5,30.00,SSE,156,8.0,9.0,96,0.00,,,0.01,meteohub,2013-04-24 14:17:00,
2013-04-24 10:22:00,70.0,68.5,30.00,South,172,4.0,10.0,95,0.00,,,0.01,meteohub,2013-04-24 14:22:00,
2013-04-24 10:27:00,70.2,68.7,29.99,South,170,5.0,10.0,95,0.00,,,0.01,meteohub,2013-04-24 14:27:00,
2013-04-24 10:32:00,70.2,68.7,29.99,SE,138,7.0,10.0,95,0.00,,,0.01,meteohub,2013-04-24 14:32:00,
2013-04-24 10:37:00,70.2,68.9,30.03,NNW,340,0.0,11.0,96,0.00,,,0.01,meteohub,2013-04-24 14:37:00,
2013-04-24 10:42:00,70.3,69.1,30.02,SE,142,0.0,11.0,96,0.00,,,0.01,meteohub,2013-04-24 14:42:00,
2013-04-24 10:47:00,70.3,69.1,30.00,ESE,119,0.0,7.0,96,0.00,,,0.01,meteohub,2013-04-24 14:47:00,
2013-04-24 10:52:00,70.2,68.9,30.01,SSE,151,4.0,9.0,96,0.00,,,0.01,meteohub,2013-04-24 14:52:00,
2013-04-24 10:57:00,70.0,68.5,30.01,WNW,298,1.0,9.0,95,0.00,,,0.01,meteohub,2013-04-24 14:57:00,
2013-04-24 11:02:00,69.4,68.0,30.03,ENE,70,2.0,9.0,95,0.00,,,0.01,meteohub,2013-04-24 15:02:00,
2013-04-24 11:09:00,68.7,67.3,30.02,NW,323,7.0,15.0,95,0.00,,,0.01,meteohub,2013-04-24 15:09:00,
2013-04-24 11:14:00,68.5,67.3,30.02,SW,217,2.0,15.0,96,0.00,,,0.01,meteohub,2013-04-24 15:14:00,
2013-04-24 11:19:00,68.7,67.5,30.04,NW,315,5.0,15.0,96,0.00,,,0.01,meteohub,2013-04-24 15:19:00,
2013-04-24 11:24:00,68.7,67.5,30.04,NNW,348,2.0,11.0,96,0.00,,,0.01,meteohub,2013-04-24 15:24:00,
2013-04-24 11:29:00,68.5,67.3,30.04,North,351,1.0,11.0,96,0.00,,,0.01,meteohub,2013-04-24 15:29:00,
2013-04-24 11:34:00,68.5,67.3,30.06,NNE,15,5.0,8.0,96,0.00,,,0.01,meteohub,2013-04-24 15:34:00,
2013-04-24 11:39:00,68.2,66.9,30.07,North,355,0.0,8.0,96,0.00,,,0.01,meteohub,2013-04-24 15:39:00,
2013-04-24 11:45:00,68.0,66.6,30.06,North,0,0.0,8.0,95,0.00,,,0.01,meteohub,2013-04-24 15:45:00,
2013-04-24 11:50:00,67.6,66.4,30.05,North,0,0.0,8.0,96,0.00,,,0.01,meteohub,2013-04-24 15:50:00,
2013-04-24 11:55:00,67.6,66.4,30.06,North,0,0.0,8.0,96,0.00,,,0.01,meteohub,2013-04-24 15:55:00,
2013-04-24 12:00:00,67.8,66.6,30.07,North,0,0.0,0.0,96,0.00,,,0.01,meteohub,2013-04-24 16:00:00,
2013-04-24 12:05:00,67.8,66.6,30.08,NNW,340,0.0,0.0,96,0.00,,,0.01,meteohub,2013-04-24 16:05:00,
2013-04-24 12:10:00,68.2,66.9,30.07,NNW,340,0.0,4.0,96,0.00,,,0.01,meteohub,2013-04-24 16:10:00,
2013-04-24 12:15:00,67.8,66.6,30.07,NNW,336,0.0,5.0,96,0.00,,,0.01,meteohub,2013-04-24 16:15:00,
2013-04-24 12:20:00,67.6,66.4,30.07,North,355,0.0,9.0,96,0.00,,,0.01,meteohub,2013-04-24 16:20:00,
2013-04-24 12:25:00,67.5,66.2,30.06,NNE,15,1.0,9.0,96,0.00,,,0.01,meteohub,2013-04-24 16:25:00,
2013-04-24 12:30:00,67.6,66.4,30.07,North,355,4.0,13.0,96,0.00,,,0.01,meteohub,2013-04-24 16:30:00,
2013-04-24 12:35:00,68.5,67.6,30.07,ENE,59,3.0,13.0,97,0.00,,,0.01,meteohub,2013-04-24 16:35:00,
2013-04-24 12:40:00,68.4,67.5,30.08,North,355,0.0,13.0,97,0.00,,,0.01,meteohub,2013-04-24 16:40:00,
2013-04-24 12:45:00,68.2,66.9,30.10,North,5,5.0,12.0,96,0.00,,,0.01,meteohub,2013-04-24 16:45:00,
2013-04-24 12:50:00,67.3,65.8,30.10,NNE,15,4.0,12.0,95,0.00,,,0.01,meteohub,2013-04-24 16:50:00,
2013-04-24 12:55:00,66.6,65.1,30.10,North,355,5.0,12.0,95,0.00,,,0.01,meteohub,2013-04-24 16:55:00,
2013-04-24 13:00:00,65.8,64.4,30.11,North,351,5.0,12.0,95,0.00,,,0.01,meteohub,2013-04-24 17:00:00,
2013-04-24 13:05:00,65.5,64.0,30.10,North,5,5.0,13.0,95,0.00,,,0.01,meteohub,2013-04-24 17:05:00,
2013-04-24 13:10:00,64.9,63.5,30.11,North,0,11.0,13.0,95,0.00,,,0.01,meteohub,2013-04-24 17:10:00,
2013-04-24 13:15:00,64.6,63.1,30.11,NNW,346,7.0,13.0,95,0.00,,,0.01,meteohub,2013-04-24 17:15:00,
2013-04-24 13:20:00,64.2,62.4,30.12,West,265,0.0,14.0,94,0.00,,,0.01,meteohub,2013-04-24 17:20:00,
2013-04-24 13:26:00,64.2,62.8,30.12,NE,34,3.0,14.0,95,0.00,,,0.01,meteohub,2013-04-24 17:26:00,
2013-04-24 13:31:00,64.0,62.2,30.11,NE,38,0.0,14.0,94,0.00,,,0.01,meteohub,2013-04-24 17:31:00,
2013-04-24 13:36:00,63.9,62.1,30.11,NE,43,0.0,11.0,94,0.00,,,0.01,meteohub,2013-04-24 17:36:00,
2013-04-24 13:41:00,64.0,62.2,30.11,NNW,338,0.0,11.0,94,0.00,,,0.01,meteohub,2013-04-24 17:41:00,
2013-04-24 13:46:00,64.2,62.8,30.11,NE,53,0.0,11.0,95,0.00,,,0.01,meteohub,2013-04-24 17:46:00,
2013-04-24 13:51:00,64.6,62.8,30.10,SSW,192,0.0,6.0,94,0.00,,,0.01,meteohub,2013-04-24 17:51:00,
2013-04-24 13:56:00,64.6,62.4,30.10,NNE,22,0.0,6.0,93,0.00,,,0.01,meteohub,2013-04-24 17:56:00,
2013-04-24 14:01:00,64.8,62.6,30.09,NE,40,0.0,6.0,93,0.00,,,0.01,meteohub,2013-04-24 18:01:00,
2013-04-24 14:06:00,65.1,63.0,30.10,ESE,103,0.0,5.0,93,0.00,,,0.01,meteohub,2013-04-24 18:06:00,
2013-04-24 14:11:00,65.5,62.8,30.10,NE,46,3.0,5.0,91,0.00,,,0.01,meteohub,2013-04-24 18:11:00,
2013-04-24 14:16:00,65.8,63.1,30.09,NE,47,0.0,5.0,91,0.00,,,0.01,meteohub,2013-04-24 18:16:00,
2013-04-24 14:21:00,66.7,64.0,30.09,NW,314,0.0,8.0,91,0.00,,,0.01,meteohub,2013-04-24 18:21:00,
2013-04-24 14:27:00,67.6,64.9,30.09,NNE,13,0.0,8.0,91,0.00,,,0.01,meteohub,2013-04-24 18:27:00,
2013-04-24 14:32:00,68.4,64.6,30.10,NW,322,0.0,8.0,88,0.00,,,0.01,meteohub,2013-04-24 18:32:00,
2013-04-24 14:37:00,68.4,64.0,30.10,NNE,13,1.0,7.0,86,0.00,,,0.01,meteohub,2013-04-24 18:37:00,
2013-04-24 14:42:00,68.5,64.2,30.10,NNE,17,0.0,7.0,86,0.00,,,0.01,meteohub,2013-04-24 18:42:00,
2013-04-24 14:47:00,68.9,64.2,30.10,NE,53,0.0,6.0,85,0.00,,,0.01,meteohub,2013-04-24 18:47:00,
2013-04-24 14:52:00,69.4,65.1,30.10,NNE,26,0.0,5.0,86,0.00,,,0.01,meteohub,2013-04-24 18:52:00,
2013-04-24 14:57:00,70.0,64.9,30.10,North,355,0.0,8.0,84,0.00,,,0.01,meteohub,2013-04-24 18:57:00,
2013-04-24 15:02:00,70.2,64.4,30.10,NNE,31,3.0,9.0,82,0.00,,,0.01,meteohub,2013-04-24 19:02:00,
2013-04-24 15:07:00,70.0,64.2,30.10,NNW,348,2.0,10.0,82,0.00,,,0.01,meteohub,2013-04-24 19:07:00,
2013-04-24 15:13:00,70.2,64.8,30.10,South,178,0.0,10.0,83,0.00,,,0.01,meteohub,2013-04-24 19:13:00,
2013-04-24 15:18:00,70.0,64.2,30.10,NW,310,4.0,10.0,82,0.00,,,0.01,meteohub,2013-04-24 19:18:00,
2013-04-24 15:23:00,70.0,64.2,30.10,NNE,27,0.0,9.0,82,0.00,,,0.01,meteohub,2013-04-24 19:23:00,
2013-04-24 15:28:00,70.0,63.9,30.10,NE,39,0.0,9.0,81,0.00,,,0.01,meteohub,2013-04-24 19:28:00,
2013-04-24 15:33:00,70.0,63.5,30.10,NNE,26,0.0,9.0,80,0.00,,,0.01,meteohub,2013-04-24 19:33:00,
2013-04-24 15:38:00,70.0,63.9,30.10,NW,315,4.0,8.0,81,0.00,,,0.01,meteohub,2013-04-24 19:38:00,
2013-04-24 15:43:00,70.0,63.9,30.10,North,0,0.0,8.0,81,0.00,,,0.01,meteohub,2013-04-24 19:43:00,
2013-04-24 15:48:00,69.8,63.3,30.10,North,0,6.0,8.0,80,0.00,,,0.01,meteohub,2013-04-24 19:48:00,
2013-04-24 15:53:00,69.6,63.5,30.11,North,355,10.0,10.0,81,0.00,,,0.01,meteohub,2013-04-24 19:53:00,
2013-04-24 15:58:00,69.1,62.6,30.11,NNW,344,0.0,10.0,80,0.00,,,0.01,meteohub,2013-04-24 19:58:00,
2013-04-24 16:03:00,68.7,62.6,30.11,North,355,0.0,10.0,81,0.00,,,0.01,meteohub,2013-04-24 20:03:00,
2013-04-24 16:08:00,68.5,62.4,30.10,NNE,13,0.0,10.0,81,0.00,,,0.01,meteohub,2013-04-24 20:08:00,
2013-04-24 16:13:00,68.4,62.2,30.10,NNE,25,0.0,6.0,81,0.00,,,0.01,meteohub,2013-04-24 20:13:00,
2013-04-24 16:18:00,68.4,62.6,30.10,NNE,15,2.0,6.0,82,0.00,,,0.01,meteohub,2013-04-24 20:18:00,
2013-04-24 16:23:00,68.4,62.2,30.10,NW,321,0.0,6.0,81,0.00,,,0.01,meteohub,2013-04-24 20:23:00,
2013-04-24 16:28:00,68.2,62.1,30.10,NW,317,7.0,8.0,81,0.00,,,0.01,meteohub,2013-04-24 20:28:00,
2013-04-24 16:33:00,67.6,61.5,30.10,NNW,347,4.0,8.0,81,0.00,,,0.01,meteohub,2013-04-24 20:33:00,
2013-04-24 16:39:00,66.9,61.2,30.09,North,355,0.0,10.0,82,0.00,,,0.01,meteohub,2013-04-24 20:39:00,
2013-04-24 16:44:00,66.7,61.0,30.09,NW,326,0.0,10.0,82,0.00,,,0.01,meteohub,2013-04-24 20:44:00,
2013-04-24 16:49:00,66.7,61.0,30.10,NNE,28,3.0,10.0,82,0.00,,,0.01,meteohub,2013-04-24 20:49:00,
2013-04-24 16:54:00,66.6,61.0,30.10,NNE,29,0.0,7.0,82,0.00,,,0.01,meteohub,2013-04-24 20:54:00,
2013-04-24 16:59:00,66.6,61.0,30.10,North,0,0.0,8.0,82,0.00,,,0.01,meteohub,2013-04-24 20:59:00,
2013-04-24 17:04:00,66.6,61.0,30.10,NNE,27,0.0,9.0,82,0.00,,,0.01,meteohub,2013-04-24 21:04:00,
2013-04-24 17:09:00,66.7,61.0,30.11,SE,142,0.0,9.0,82,0.00,,,0.01,meteohub,2013-04-24 21:09:00,
2013-04-24 17:14:00,66.7,60.8,30.11,NNW,337,0.0,9.0,81,0.00,,,0.01,meteohub,2013-04-24 21:14:00,
2013-04-24 17:19:00,66.6,60.6,30.10,NNW,336,4.0,9.0,81,0.00,,,0.01,meteohub,2013-04-24 21:19:00,
2013-04-24 17:24:00,65.8,59.9,30.11,NNE,18,2.0,5.0,81,0.00,,,0.01,meteohub,2013-04-24 21:24:00,
2013-04-24 17:29:00,65.5,60.3,30.10,NE,51,3.0,5.0,83,0.00,,,0.01,meteohub,2013-04-24 21:29:00,
2013-04-24 17:34:00,64.9,59.7,30.11,ENE,63,0.0,11.0,83,0.00,,,0.01,meteohub,2013-04-24 21:34:00,
2013-04-24 17:39:00,64.8,59.9,30.10,NNE,26,0.0,11.0,84,0.00,,,0.01,meteohub,2013-04-24 21:39:00,
2013-04-24 17:44:00,64.6,59.4,30.10,NNW,346,0.0,7.0,83,0.00,,,0.01,meteohub,2013-04-24 21:44:00,
2013-04-24 17:49:00,64.2,59.0,30.10,NNE,33,6.0,7.0,83,0.00,,,0.01,meteohub,2013-04-24 21:49:00,
2013-04-24 17:54:00,63.9,59.0,30.10,NE,39,4.0,10.0,84,0.00,,,0.01,meteohub,2013-04-24 21:54:00,
2013-04-24 17:59:00,63.9,59.0,30.10,North,5,0.0,10.0,84,0.00,,,0.01,meteohub,2013-04-24 21:59:00,
2013-04-24 18:05:00,63.7,58.8,30.11,WSW,240,3.0,10.0,84,0.00,,,0.01,meteohub,2013-04-24 22:05:00,
2013-04-24 18:10:00,63.5,58.6,30.11,NNE,19,0.0,8.0,84,0.00,,,0.00,meteohub,2013-04-24 22:10:00,
2013-04-24 18:15:00,63.5,58.3,30.10,NE,34,0.0,8.0,83,0.00,,,0.00,meteohub,2013-04-24 22:15:00,
2013-04-24 18:20:00,63.3,58.1,30.11,North,0,0.0,6.0,83,0.00,,,0.00,meteohub,2013-04-24 22:20:00,
2013-04-24 18:25:00,63.3,58.1,30.11,NE,40,0.0,6.0,83,0.00,,,0.00,meteohub,2013-04-24 22:25:00,
2013-04-24 18:30:00,63.5,58.3,30.11,North,355,0.0,6.0,83,0.00,,,0.00,meteohub,2013-04-24 22:30:00,
2013-04-24 18:35:00,63.5,58.3,30.11,NNE,22,0.0,6.0,83,0.00,,,0.00,meteohub,2013-04-24 22:35:00,
2013-04-24 18:40:00,63.3,58.5,30.11,NW,324,5.0,7.0,84,0.00,,,0.00,meteohub,2013-04-24 22:40:00,
2013-04-24 18:45:00,63.3,58.1,30.12,NE,35,0.0,10.0,83,0.00,,,0.00,meteohub,2013-04-24 22:45:00,
2013-04-24 18:50:00,63.1,57.6,30.12,NNW,337,0.0,9.0,82,0.00,,,0.00,meteohub,2013-04-24 22:50:00,
2013-04-24 18:55:00,63.0,58.1,30.12,NNE,20,0.0,9.0,84,0.00,,,0.00,meteohub,2013-04-24 22:55:00,
2013-04-24 19:00:00,62.8,57.6,30.11,NNE,13,0.0,9.0,83,0.00,,,0.00,meteohub,2013-04-24 23:00:00,
2013-04-24 19:05:00,62.4,57.2,30.12,NNE,14,8.0,8.0,83,0.00,,,0.00,meteohub,2013-04-24 23:05:00,
2013-04-24 19:10:00,62.2,57.0,30.11,NNE,17,1.0,9.0,83,0.00,,,0.00,meteohub,2013-04-24 23:10:00,
2013-04-24 19:15:00,62.1,56.8,30.11,North,5,2.0,9.0,83,0.00,,,0.00,meteohub,2013-04-24 23:15:00,
2013-04-24 19:20:00,61.9,57.0,30.11,NNE,28,0.0,9.0,84,0.00,,,0.00,meteohub,2013-04-24 23:20:00,
2013-04-24 19:25:00,61.5,56.3,30.11,NNE,32,0.0,7.0,83,0.00,,,0.00,meteohub,2013-04-24 23:25:00,
2013-04-24 19:30:00,61.5,56.3,30.12,NW,324,0.0,7.0,83,0.00,,,0.00,meteohub,2013-04-24 23:30:00,
2013-04-24 19:35:00,61.3,56.5,30.12,NNE,32,0.0,7.0,84,0.00,,,0.00,meteohub,2013-04-24 23:35:00,
2013-04-24 19:40:00,61.3,56.5,30.12,South,178,0.0,7.0,84,0.00,,,0.00,meteohub,2013-04-24 23:40:00,
2013-04-24 19:46:00,61.3,56.5,30.12,ENE,59,0.0,5.0,84,0.00,,,0.00,meteohub,2013-04-24 23:46:00,
2013-04-24 19:51:00,61.3,56.5,30.12,ENE,57,0.0,4.0,84,0.00,,,0.00,meteohub,2013-04-24 23:51:00,
2013-04-24 19:56:00,61.3,56.5,30.12,North,5,2.0,4.0,84,0.00,,,0.00,meteohub,2013-04-24 23:56:00,
2013-04-24 20:01:00,61.3,56.5,30.12,SE,142,0.0,4.0,84,0.00,,,0.00,meteohub,2013-04-25 00:01:00,
2013-04-24 20:06:00,61.3,56.5,30.12,NE,49,0.0,4.0,84,0.00,,,0.00,meteohub,2013-04-25 00:06:00,
2013-04-24 20:11:00,61.5,56.7,30.12,NE,40,1.0,2.0,84,0.00,,,0.00,meteohub,2013-04-25 00:11:00,
2013-04-24 20:16:00,61.5,56.7,30.12,ENE,69,0.0,5.0,84,0.00,,,0.00,meteohub,2013-04-25 00:16:00,
2013-04-24 20:21:00,61.3,56.5,30.12,NE,54,0.0,5.0,84,0.00,,,0.00,meteohub,2013-04-25 00:21:00,
2013-04-24 20:26:00,61.3,56.5,30.13,NE,38,0.0,5.0,84,0.00,,,0.00,meteohub,2013-04-25 00:26:00,
2013-04-24 20:31:00,61.5,56.7,30.13,North,355,0.0,4.0,84,0.00,,,0.00,meteohub,2013-04-25 00:31:00,
2013-04-24 20:36:00,61.5,56.7,30.13,North,355,0.0,5.0,84,0.00,,,0.00,meteohub,2013-04-25 00:36:00,
2013-04-24 20:41:00,61.5,56.7,30.13,North,355,0.0,5.0,84,0.00,,,0.00,meteohub,2013-04-25 00:41:00,
2013-04-24 20:46:00,61.5,56.7,30.14,North,355,0.0,0.0,84,0.00,,,0.00,meteohub,2013-04-25 00:46:00,
2013-04-24 20:51:00,61.5,56.7,30.13,North,355,0.0,1.0,84,0.00,,,0.00,meteohub,2013-04-25 00:51:00,
2013-04-24 20:56:00,61.5,56.7,30.14,North,355,0.0,1.0,84,0.00,,,0.00,meteohub,2013-04-25 00:56:00,
2013-04-24 21:01:00,61.5,56.7,30.14,SSE,163,0.0,1.0,84,0.00,,,0.00,meteohub,2013-04-25 01:01:00,
2013-04-24 21:06:00,61.5,56.7,30.15,SE,131,0.0,1.0,84,0.00,,,0.00,meteohub,2013-04-25 01:06:00,
2013-04-24 21:11:00,61.5,56.7,30.15,SE,131,0.0,0.0,84,0.00,,,0.00,meteohub,2013-04-25 01:11:00,
2013-04-24 21:16:00,61.5,56.7,30.15,ENE,76,0.0,1.0,84,0.00,,,0.00,meteohub,2013-04-25 01:16:00,
2013-04-24 21:21:00,61.3,56.5,30.16,NNW,332,0.0,1.0,84,0.00,,,0.00,meteohub,2013-04-25 01:21:00,
2013-04-24 21:26:00,61.3,56.5,30.15,SE,139,0.0,4.0,84,0.00,,,0.00,meteohub,2013-04-25 01:26:00,
2013-04-24 21:32:00,61.3,56.5,30.16,NNW,329,0.0,4.0,84,0.00,,,0.00,meteohub,2013-04-25 01:32:00,
2013-04-24 21:37:00,61.3,56.5,30.16,NNE,32,0.0,4.0,84,0.00,,,0.00,meteohub,2013-04-25 01:37:00,
2013-04-24 21:42:00,61.2,56.3,30.16,WNW,293,0.0,4.0,84,0.00,,,0.00,meteohub,2013-04-25 01:42:00,
2013-04-24 21:47:00,61.2,56.7,30.17,NW,306,0.0,2.0,85,0.00,,,0.00,meteohub,2013-04-25 01:47:00,
2013-04-24 21:52:00,61.2,56.7,30.17,ENE,71,0.0,2.0,85,0.00,,,0.00,meteohub,2013-04-25 01:52:00,
2013-04-24 21:57:00,61.2,56.7,30.17,NNW,342,0.0,1.0,85,0.00,,,0.00,meteohub,2013-04-25 01:57:00,
2013-04-24 22:02:00,61.2,56.7,30.18,SSW,202,0.0,1.0,85,0.00,,,0.00,meteohub,2013-04-25 02:02:00,
2013-04-24 22:07:00,61.2,57.0,30.18,NNW,348,0.0,4.0,86,0.00,,,0.00,meteohub,2013-04-25 02:07:00,
2013-04-24 22:12:00,61.0,56.8,30.18,North,10,0.0,7.0,86,0.00,,,0.00,meteohub,2013-04-25 02:12:00,
2013-04-24 22:17:00,61.0,56.8,30.19,North,9,0.0,7.0,86,0.00,,,0.00,meteohub,2013-04-25 02:17:00,
2013-04-24 22:22:00,61.0,56.8,30.19,North,9,0.0,7.0,86,0.00,,,0.00,meteohub,2013-04-25 02:22:00,
2013-04-24 22:27:00,61.0,56.8,30.18,North,9,0.0,0.0,86,0.00,,,0.00,meteohub,2013-04-25 02:27:00,
2013-04-24 22:32:00,61.0,56.5,30.18,NNW,347,0.0,2.0,85,0.00,,,0.00,meteohub,2013-04-25 02:32:00,
2013-04-24 22:37:00,60.6,56.1,30.18,NNE,22,0.0,2.0,85,0.00,,,0.00,meteohub,2013-04-25 02:37:00,
2013-04-24 22:42:00,60.6,56.1,30.18,NNW,346,0.0,4.0,85,0.00,,,0.00,meteohub,2013-04-25 02:42:00,
2013-04-24 22:47:00,60.3,55.8,30.18,NNW,327,0.0,4.0,85,0.00,,,0.00,meteohub,2013-04-25 02:47:00,
2013-04-24 22:52:00,60.1,55.6,30.18,NNE,24,0.0,4.0,85,0.00,,,0.00,meteohub,2013-04-25 02:52:00,
2013-04-24 22:57:00,60.1,55.9,30.18,NE,50,0.0,4.0,86,0.00,,,0.00,meteohub,2013-04-25 02:57:00,
2013-04-24 23:02:00,59.7,55.2,30.18,NE,47,0.0,3.0,85,0.00,,,0.00,meteohub,2013-04-25 03:02:00,
2013-04-24 23:07:00,59.7,55.2,30.18,South,171,5.0,0.0,85,0.00,,,0.00,meteohub,2013-04-25 03:07:00,
2013-04-24 23:12:00,59.5,55.0,30.18,ENE,57,0.0,11.0,85,0.00,,,0.00,meteohub,2013-04-25 03:12:00,
2013-04-24 23:17:00,59.5,55.4,30.19,ENE,59,0.0,11.0,86,0.00,,,0.00,meteohub,2013-04-25 03:17:00,
2013-04-24 23:22:00,59.7,55.6,30.19,North,9,0.0,11.0,86,0.00,,,0.00,meteohub,2013-04-25 03:22:00,
2013-04-24 23:27:00,59.7,55.6,30.19,NW,323,6.0,6.0,86,0.00,,,0.00,meteohub,2013-04-25 03:27:00,
2013-04-24 23:32:00,59.5,55.4,30.19,North,5,0.0,6.0,86,0.00,,,0.00,meteohub,2013-04-25 03:32:00,
2013-04-24 23:37:00,59.4,55.2,30.19,ENE,57,0.0,7.0,86,0.00,,,0.00,meteohub,2013-04-25 03:37:00,
2013-04-24 23:42:00,59.4,55.4,30.19,ENE,57,0.0,7.0,87,0.00,,,0.00,meteohub,2013-04-25 03:42:00,
2013-04-24 23:47:00,59.4,55.2,30.19,NE,38,0.0,7.0,86,0.00,,,0.00,meteohub,2013-04-25 03:47:00,
2013-04-24 23:52:00,59.4,55.2,30.19,NW,325,0.0,2.0,86,0.00,,,0.00,meteohub,2013-04-25 03:52:00,
2013-04-24 23:57:00,59.2,55.0,30.19,South,171,0.0,1.0,86,0.00,,,0.00,meteohub,2013-04-25 03:57:00,